Probability
0 0 0 0 0 0 0 0 0 0 0 0 0 0 0 0 0 0 0 0 0 0 0 0 0 0 0 0 0 0 0 0 0 0 0 0 0 0 0 0 0 0 0
0 0 0 0 0 0 0 0 0 0 0 0 0 0 0 0 0 0 0 0 0 0 0 0 0 0 0 0 0 0 0 0 0 0 0 0 0 0 0 0 0 0 0
0 0 0 0 0 0 0 0 0 0 0 0 0 0 0 0 0 0 0 0 0 0 0 0 0 0 0 0 0 0 0 0 0 0 0 0 0 0 0 0 0 0 0
0 0 0 0 0 0 0 0 0 0 0 0 0 0 0 0 0 0 0 0 0 0 0 0 0 0 0 0 0 0 0 0 0 0 0 0 0 0 0 0 0 0 0
0 0 0 0 0 0 0 0 0 0 0 0 0 0 0 0 0 0 0 0 0 0 0 0 0 0 0 0 0 0 0 0 0 0 0 0 0 0 0 0 0 0 0
0 0 0 0 0 0 0 0 0 0 0 0 0 0 0 0 0 0 0 0 0 0 0 0 0 0 0 0 0 0 0 0 0 0 0 0 0 0 0 0 0 0 0
0 0 0 0 0 0 0 0 0 0 0 0 0 0 0 0 0 0 0 0 0 0 0 0 0 0 0 0 0 0 0 0 0 0 0 0 0 0 0 0 0 0 0
0 0 0 0 0 0 0 0 0 0 0 0 0 0 0 0 0 0 0 0 0 0 0 0 0 0 0 0 0 0 0 0 0 0 0 0 0 0 0 0 0 0 0
0 0 0 0 0 0 0 0 0 0 0 0 0 0 0 0 0 0 0 0 0 0 0 0 0 0 0 0 0 0 0 0 0 0 0 0 0 0 0 0 0 0 0
0 0 0 0 0 0 0 0 0 0 0 0 0 0 0 0 0 0 0 0 0 0 0 0 0 0 0 0 0 0 0 0 0 0 0 0 0 0 0 0 0 0 0
0 0 0 0 0 0 0 0 0 0 0 0 0 0 0 0 0 0 0 0 0 0 0 0 0 0 0 0 0 0 0 0 0 0 0 0 0 0 0 0 0 0 0
0 0 0 0 0 0 0 0 0 0 0 0 0 0 0 0 0 0 0 0 0 0 0 0 0 0 0 0 0 0 0 0 0 0 0 0 0 0 0 0 0 0 0
0 0 0 0 0 0 0 0 0 0 0 0 0 0 0 0 0 0 0 0 0 0 0 0 0 0 0 0 0 0 0 0 0 0 0 0 0 0 0 0 0 0 0
0 0 0 0 0 0 0 0 0 0 0 0 0 0 0 0 0 0 0 0 0 0 0 0 0 0 0 0 0 0 0 0 0 0 0 0 0 0 0 0 0 0 0
0 0 0 0 0 0 0 0 0 0 0 0 0 0 0 0 0 0 0 0 0 0 0 0 0 0 0 0 0 0 0 0 0 0 0 0 0 0 0 0 0 0 0
0 0 0 0 0 0 0 0 0 0 0 0 0 0 0 0 0 0 0 0 0 0 0 0 0 0 0 0 0 0 0 0 0 0 0 0 0 0 0 0 0 0 0
0 0 0 0 0 0 0 0 0 0 0 0 0 0 0 0 0 0 0 0 0 0 0 0 0 0 0 0 0 0 0 0 0 0 0 0 0 0 0 0 0 0 0
0 0 0 0 0 0 0 0 0 0 0 0 0 0 0 0 0 0 0 0 0 0 0 0 0 0 0 0 0 0 0 0 0 0 0 0 0 0 0 0 0 0 0
0 0 0 0 0 0 0 0 0 0 0 0 0 0 0 0 0 0 0 0 0 0 0 0 0 0 0 0 0 0 0 0 0 0 0 0 0 0 0 0 0 0 0
0 0 0 0 0 0 0 0 0 0 0 0 0 0 0 0 0 0 0 0 0 0 0 0 0 0 0 0 0 0 0 0 0 0 0 0 0 0 0 0 0 0 0
0 0 0 0 0 0 0 0 0 0 0 0 0 0 0 0 0 0 0 0 0 0 0 0 0 0 0 0 0 0 0 0 0 0 0 0 0 0 0 0 0 0 0
0 0 0 0 0 0 0 0 0 0 0 0 0 0 0 0 0 0 0 0 0 0 0 0 0 0 0 0 0 0 0 0 0 0 0 0 0 0 0 0 0 0 0
0 0 0 0 0 0 0 0 0 0 0 0 0 0 0 0 0 0 0 0 0 0 0 0 0 0 0 0 0 0 0 0 0 0 0 0 0 0 0 0 0 0 0
0 0 0 0 0 0 0 0 0 0 0 0 0 0 0 0 0 0 0 0 0 0 0 0 0 0 0 0 0 0 0 0 0 0 0 0 0 0 0 0 0 0 0
0 0 0 0 0 0 0 0 0 0 0 0 0 0 0 0 0 0 0 0 0 0 0 0 0 0 0 0 0 0 0 0 0 0 0 0 0 0 0 0 0 0 0
0 0 0 0 0 0 0 0 0 0 0 0 0 0 0 0 0 0 0 0 0 0 0 0 0 0 0 0 0 0 0 0 0 0 0 0 0 0 0 0 0 0 0
Wind_Speed
2 2 2 2 2 2 2 2 3 3 3 3 3 3 3 4 3 3 3 3 4 4 3 4 4 4 3 3 3 4 4 4 7 6 4 3 3 4 4 3 3 3 4
2 2 2 3 2 2 3 3 3 3 3 3 3 3 4 4 4 4 4 4 4 4 4 4 5 4 4 4 3 4 4 5 5 7 5 3 4 4 4 4 4 3 3
2 2 3 3 3 3 3 3 3 3 3 3 3 4 4 4 5 5 4 4 5 5 5 5 5 5 5 4 4 4 4 4 4 5 5 4 3 3 3 3 4 3 4
3 2 3 3 4 4 4 4 3 3 4 4 4 4 4 5 5 5 5 5 5 5 5 5 5 6 6 5 4 5 4 4 4 4 4 4 3 3 2 3 4 3 4
3 3 3 4 4 4 4 4 4 4 4 4 4 4 4 4 4 5 5 5 5 5 5 5 5 6 7 6 5 4 4 4 4 4 4 4 3 3 3 2 4 4 4
2 3 4 4 4 4 4 4 4 4 4 4 4 4 5 4 7 8 6 5 5 5 5 5 5 5 6 7 7 7 6 6 5 5 5 5 5 4 3 3 4 4 4
3 3 4 4 4 5 5 4 4 5 5 5 5 5 5 7 9 9 8 6 5 5 5 5 5 5 5 5 7 8 7 9 9 6 6 7 6 5 4 4 4 5 5
3 4 4 4 5 5 5 5 5 5 4 5 5 5 6 7 9 9 9 6 5 5 5 5 6 6 5 5 5 6 6 6 8 6 6 6 6 5 5 5 5 4 4
3 4 4 4 5 5 5 6 5 5 5 5 5 5 6 7 9 9 9 4 4 5 5 5 6 6 7 8 6 6 7 6 7 8 9 8 8 7 4 2 2 2 4
4 5 5 5 5 5 6 6 5 5 5 5 5 5 5 6 9 10 9 4 5 5 5 5 6 6 8 8 6 6 7 6 4 4 5 6 5 5 5 4 4 4 3
5 5 5 5 5 5 5 5 5 5 4 4 5 5 5 6 8 10 10 5 4 5 4 4 4 8 10 10 8 6 7 6 4 3 3 3 2 2 3 3 3 4 4
4 5 5 5 5 4 5 5 5 4 4 4 5 5 4 5 6 8 10 9 7 5 5 4 5 9 10 9 7 7 7 5 2 2 3 3 3 3 2 2 3 3 3
4 4 5 5 4 4 4 4 4 4 3 4 4 5 5 4 5 9 10 9 9 6 4 7 8 9 8 6 7 7 5 3 2 3 4 4 3 3 2 1 1 1 2
4 4 4 4 4 4 4 3 3 3 4 4 4 5 5 5 4 4 4 4 5 5 4 5 7 8 7 6 4 4 3 2 3 3 3 3 2 2 2 2 1 1 1
3 4 4 4 4 4 4 4 4 4 4 5 4 4 4 5 7 10 7 4 4 3 4 3 3 3 3 3 3 2 2 2 2 2 3 3 3 2 2 2 1 1 2
3 3 3 3 3 3 4 5 7 7 9 9 9 8 6 8 11 11 11 9 9 7 4 3 3 3 3 3 3 3 3 2 2 2 2 3 3 3 2 2 2 2 2
2 3 3 3 3 3 3 4 5 7 8 9 9 10 10 10 11 11 10 9 9 7 3 3 3 3 3 3 3 3 3 3 3 2 2 3 3 3 2 2 2 2 2
2 2 2 2 3 3 3 3 3 4 6 6 7 10 11 11 11 11 10 7 5 5 3 3 4 4 3 3 3 3 3 3 3 3 2 3 3 2 2 2 2 3 2
2 2 2 2 2 2 3 3 3 3 4 4 5 7 9 10 10 10 9 4 3 4 4 3 4 4 4 4 4 3 3 3 3 3 3 3 3 2 2 2 2 3 2
2 3 3 2 2 2 2 2 3 3 3 4 4 5 6 6 5 5 5 3 3 3 4 4 4 4 4 4 4 3 3 3 3 3 3 3 2 2 2 2 2 2 2
2 2 2 2 2 2 2 2 3 3 3 4 4 6 9 5 4 5 5 4 4 4 4 4 4 4 4 4 3 4 4 4 3 3 3 3 2 2 1 1 1 1 1
1 1 1 1 2 2 2 3 3 3 3 4 4 5 9 5 4 4 4 5 4 4 4 4 4 4 4 4 4 4 4 4 4 3 3 2 2 1 1 1 1 1 1
1 1 1 2 2 2 3 2 2 3 3 4 4 4 4 4 4 4 5 5 5 5 4 4 4 4 4 4 4 4 4 4 4 3 3 2 2 1 1 1 1 1 1
1 1 1 2 2 2 2 3 3 3 3 4 4 4 4 4 5 5 5 5 5 5 5 4 5 6 7 6 4 4 4 5 4 3 3 2 2 1 1 1 1 1 1
1 1 1 2 2 2 3 3 3 3 3 4 4 4 4 4 5 5 5 5 6 6 6 6 5 5 7 8 7 6 7 7 5 2 1 1 1 1 1 1 1 0 0
1 1 2 2 2 2 2 3 4 4 4 4 4 4 5 5 5 5 5 5 6 6 6 6 6 7 8 7 8 8 8 7 4 3 1 1 1 1 1 1 1 1 1
Wind_Direction
358 348 345 331 331 332 320 310 307 306 303 297 293 296 296 293 290 278 273 270 263 267 265 259 261 258 252 250 247 247 244 238 258 277 275 284 280 281 296 287 281 281 285
341 346 339 338 344 341 327 322 320 313 306 301 301 295 291 292 287 278 278 272 262 264 264 263 263 260 257 258 254 253 250 241 244 267 279 279 272 273 282 289 297 295 290
348 346 340 337 336 324 316 320 321 313 308 305 302 295 292 291 287 281 276 271 264 262 261 258 260 254 254 256 256 259 258 253 244 254 271 278 277 281 294 298 294 293 296
343 336 327 323 319 314 314 319 317 314 311 307 299 292 289 289 286 287 282 275 272 270 266 262 260 254 254 253 253 256 259 257 252 257 266 278 279 286 285 294 299 299 299
335 327 318 323 323 322 322 323 321 319 313 310 305 301 295 287 282 286 283 278 277 276 272 267 264 261 261 259 257 252 250 255 256 256 265 274 275 287 279 286 286 297 291
326 321 328 332 331 328 326 325 323 320 318 315 307 303 299 293 293 291 290 281 276 274 277 277 270 260 260 268 270 265 258 257 258 252 257 263 267 269 278 277 281 289 289
327 333 336 335 330 324 324 323 318 314 314 310 306 303 297 294 298 299 297 291 280 276 274 274 276 273 264 262 266 266 262 262 261 256 256 259 263 254 256 263 264 263 266
334 336 336 334 326 324 322 317 314 312 306 302 302 301 299 301 306 304 302 299 288 280 275 269 268 270 265 263 263 267 264 261 260 256 254 260 263 255 239 245 252 266 275
331 325 323 322 318 318 314 312 312 309 305 303 304 303 302 303 306 307 307 301 292 290 287 281 272 268 272 274 268 266 271 272 272 271 273 276 277 273 260 245 248 258 273
319 316 315 313 307 304 304 306 308 304 302 306 307 306 301 300 306 311 310 298 293 292 291 287 280 276 277 275 265 261 266 272 277 280 278 280 274 261 255 237 227 233 256
324 320 317 312 307 304 306 309 310 309 310 310 308 309 306 302 303 308 310 302 289 289 289 289 286 289 285 279 273 263 268 278 269 264 273 284 287 267 254 251 246 233 234
328 321 317 315 315 315 314 315 316 313 311 310 311 313 313 311 310 309 310 306 303 289 287 290 290 293 295 289 278 278 280 283 269 260 263 268 270 272 273 267 259 251 246
328 322 318 321 321 320 316 316 318 318 314 312 312 312 317 318 315 317 314 311 308 301 294 296 300 303 304 296 284 282 280 262 257 262 265 269 270 268 272 274 282 282 287
322 322 324 326 326 327 321 314 310 307 307 307 309 311 314 316 315 315 311 310 310 308 308 308 307 308 310 312 309 292 274 259 251 253 265 276 276 264 252 244 242 251 279
326 324 327 328 326 324 321 307 303 292 291 302 299 299 306 309 313 321 323 320 316 310 325 321 318 319 320 324 320 312 302 287 270 266 266 270 270 262 257 246 221 217 229
331 330 326 325 324 324 322 321 317 315 317 319 320 319 311 312 318 323 329 336 341 344 346 328 323 323 319 318 317 316 311 293 277 270 267 268 266 258 252 242 224 213 230
311 314 314 318 318 319 321 323 324 329 329 327 329 330 328 328 329 330 335 345 351 358 3 336 321 319 316 314 313 309 307 310 302 281 270 270 268 265 248 240 231 224 235
310 304 301 298 301 304 308 309 310 315 323 325 330 333 336 336 336 340 347 357 356 1 351 330 320 316 313 313 311 308 308 313 309 297 284 274 263 252 247 244 231 221 235
311 313 308 303 303 304 309 311 311 308 308 313 324 334 342 337 341 349 358 5 342 334 333 327 319 315 313 312 310 307 304 302 305 301 292 284 273 254 245 246 236 224 222
306 315 325 315 317 319 319 317 315 314 315 317 320 324 332 338 343 343 348 343 332 319 317 314 313 309 307 306 306 307 308 305 307 304 302 295 282 267 260 254 240 222 223
307 318 327 326 319 313 312 307 305 307 309 310 308 314 328 335 332 329 329 327 319 310 308 307 306 308 306 302 300 301 301 299 297 295 296 298 301 302 294 273 261 225 204
295 307 317 310 310 312 309 304 303 305 306 306 309 319 333 338 325 321 319 317 315 309 303 299 299 298 296 295 290 287 289 290 291 291 291 293 295 298 295 282 276 253 203
310 313 314 311 304 308 312 309 307 305 303 304 310 317 322 322 317 313 310 310 311 310 309 305 300 300 300 293 287 281 280 282 283 282 283 285 284 274 258 251 247 239 237
283 280 292 302 304 304 303 304 303 301 300 304 308 308 309 309 308 307 307 307 308 308 308 306 300 299 304 305 297 288 283 286 286 275 263 263 268 263 245 243 255 233 229
265 271 279 284 291 294 296 298 298 298 298 299 300 301 303 303 303 303 305 306 307 306 306 303 301 303 303 304 303 300 296 297 298 294 266 244 243 235 218 223 233 228 223
267 271 273 273 273 277 283 290 293 294 295 295 294 294 295 297 298 299 301 304 308 307 305 302 300 302 302 301 300 304 305 302 299 283 239 220 225 226 208 208 196 183 174